Location: Unspecified
(38.9917°N, 0.0000°E)
Time: 11:21:48
(UTC+00:00)

RS-15 - Visible Passes

Search period start: 21 August 2019 00:00
Search period end: 31 August 2019 00:00
Orbit: 1900 x 2145 km, 64.8° (Epoch: 21 August)

Date Brightness Start Highest point End Pass type
(mag) Time Alt. Az. Time Alt. Az. Time Alt. Az.
21 Aug 9.2 02:37:32 10° SSE 02:47:07 32° ESE 02:56:23 10° NE visible
21 Aug 8.1 04:47:17 10° SW 04:58:39 69° NW 05:09:41 10° NNE visible
22 Aug 9.5 02:03:22 10° SSE 02:11:32 23° ESE 02:19:29 10° NE visible
22 Aug 8.0 04:11:03 10° SSW 04:22:33 85° WNW 04:33:39 10° NNE visible
23 Aug 9.8 01:30:10 10° SE 01:36:05 16° E 01:41:50 10° ENE visible
23 Aug 8.1 03:36:17 14° SSW 03:46:33 77° ESE 03:57:34 10° NE visible
24 Aug 8.3 03:02:10 20° S 03:10:40 60° ESE 03:21:25 10° NE visible
25 Aug 8.6 02:28:00 23° SSE 02:34:53 46° ESE 02:45:06 10° NE visible
25 Aug 8.3 04:36:02 10° SW 04:47:03 53° NW 04:57:46 10° NNE visible
26 Aug 9.0 01:53:47 23° SSE 01:59:11 34° ESE 02:08:36 10° NE visible
26 Aug 8.0 04:01:34 18° SW 04:10:48 66° NW 04:21:46 10° NNE visible
27 Aug 9.3 01:19:30 20° SE 01:23:35 24° ESE 01:31:46 10° NE visible
27 Aug 7.9 03:27:18 27° SW 03:34:40 83° WNW 03:45:46 10° NNE visible
28 Aug 9.5 00:45:11 15° ESE 00:48:06 17° E 00:54:16 10° ENE visible
28 Aug 8.0 02:52:58 36° SSW 02:58:40 79° ESE 03:09:42 10° NNE visible
29 Aug 9.8 00:11:37 10° E 00:12:43 10° E 00:13:50 10° E visible
29 Aug 8.1 02:18:35 42° S 02:22:46 62° ESE 02:33:32 10° NE visible
29 Aug 8.5 04:26:23 14° WSW 04:35:37 41° NW 04:45:50 10° NNE visible
30 Aug 8.4 01:44:11 41° SE 01:46:57 47° ESE 01:57:16 10° NE visible
30 Aug 8.3 03:51:58 23° WSW 03:59:12 51° NW 04:09:52 10° NNE visible
